Weather Roundup
Issued by NWS

Home | Current Version | Previous Version | Graphics & Text | Print | Product List | Glossary Off
Versions: 1 2 3 4 5 6 7 8 9 10 11 12 13 14 15 16 17 18 19 20 21 22 23 24 25 26 27 28 29 30 31 32 33 34 35 36 37 38 39 40 41 42 43 44 45 46 47 48 49 50

000
NZUS93 KARX 041059
HRRWXR

CURRENT HOURLY OBSERVATIONS ACROSS
MUCH OF THE UPPER MISSISSIPPI VALLEY
NATIONAL WEATHER SERVICE LA CROSSE WI
600 AM CDT TUE AUG 04 2015


...SOUTHEAST MINNESOTA...


CITY           SKY/WX    TMP DP  RH WIND       PRES   REMARKS
ROCHESTER      CLEAR     52  50  93 CALM      29.98R
ROCHESTER/MAYO FAIR      58  54  85 CALM      29.97R
WINONA         CLEAR     55  54  94 CALM      29.95R
AUSTIN         CLEAR     55  52  88 CALM      29.98R
ALBERT LEA     CLEAR     52  52 100 CALM      29.98S
DODGE CENTER   CLEAR     50  48  93 SW5       29.98R
PRESTON        CLEAR     54  51  87 W3        29.98R
OWATONNA       CLEAR     48  46  93 CALM      29.98R
FARIBAULT      CLEAR     50  48  93 CALM      29.97R
$$

...ELSEWHERE IN MINNESOTA...


CITY           SKY/WX    TMP DP  RH WIND       PRES   REMARKS
MINNEAPOLIS    CLEAR     59  54  83 NW3       29.94S
INTNL FALLS    MOCLDY    50  49  96 CALM      29.94R
DULUTH         PTCLDY    53  49  86 NW6       29.92S
RED WING       CLEAR     54  52  94 CALM      29.94R
REDWOOD FALLS  CLEAR     55  51  86 SW8       29.99R
MANKATO        CLEAR     55  50  82 SW5       29.99R
WORTHINGTON    MOCLDY    54  48  82 CALM      30.02R
FAIRMONT       CLEAR     54  45  71 CALM      30.00R
$$

...SOUTHWEST WISCONSIN...


CITY           SKY/WX    TMP DP  RH WIND       PRES   REMARKS
LA CROSSE      CLEAR     59  56  89 CALM      29.95R
PRAIRIE DU CHI CLEAR     55  52  90 CALM      29.96R
BOSCOBEL       PTCLDY    53  51  93 SW5       29.96R
LONE ROCK      NOT AVBL
PLATTEVILLE    CLEAR     57  55  95 W3        29.95S
FORT MC COY    CLEAR     47  46  96 CALM      29.95R
VIROQUA        FAIR      53  52  99 CALM      29.95S
WIS DELLS      PTCLDY    54  50  85 CALM      29.93R
$$

...ELSEWHERE IN WISCONSIN...


CITY           SKY/WX    TMP DP  RH WIND       PRES   REMARKS
MILWAUKEE      CLEAR     62  52  69 SW3       29.92R
MADISON        PTCLDY    59  51  75 N3        29.92R
GREEN BAY      CLEAR     55  54  96 CALM      29.89S
EAU CLAIRE     NOT AVBL
BLACK RVR FLS  FAIR      46  46 100 CALM      29.93S
MEDFORD        CLEAR     50  50  99 W6        29.94R
WAUSAU         CLEAR     58  54  86 NW5       29.92R
WIS RAPIDS     CLEAR     57  52  83 NW7       29.94R
MARSHFIELD     CLEAR     55  50  83 NW8       29.93S
RICE LAKE      FOG       50  49  95 CALM      29.95S VSB 1/4
$$

...NORTHEAST IOWA...


CITY           SKY/WX    TMP DP  RH WIND       PRES   REMARKS
DECORAH        CLEAR     55  52  88 CALM      29.96R
MASON CITY     CLEAR     56  52  86 NW5       30.01R
CHARLES CITY   CLEAR     54  54 100 NW5       29.99R
OELWEIN          N/A     54  52  94 CALM      29.97R
$$

...ELSEWHERE IN IOWA...


CITY           SKY/WX    TMP DP  RH WIND       PRES   REMARKS
DES MOINES     MOCLDY    67  60  78 S5        29.98R
IOWA CITY      CLEAR     59  56  89 CALM      30.00R
FORT DODGE     MOCLDY    57  54  88 CALM      30.01R
$$

...NORTHERN ILLINOIS...


CITY           SKY/WX    TMP DP  RH WIND       PRES   REMARKS
CHICAGO-OHARE  PTCLDY    61  55  81 W3        29.94R
CHICAGO-MIDWAY PTCLDY    65  55  70 CALM      29.94R
MOLINE         CLEAR     59  55  87 SW3       29.98R
ROCKFORD       PTCLDY    57  53  86 S5        29.96R
PEORIA         PTCLDY    63  57  81 CALM      29.98R
$$

NOTE: "FAIR" INDICATES FEW OR NO CLOUDS BELOW 12,000 FEET WITH NO
SIGNIFICANT WEATHER AND/OR OBSTRUCTIONS TO VISIBILITY. WIND
SPEEDS ARE IN MILES-PER-HOUR.



USA.gov is the U.S. government's official web portal to all federal, state and local government web resources and services.